Starlink 35248

operational
NORAD ID: 65598 Int'l Des: 2025-207 Owner: SPXS Country: US Constellation: starlink
NOTLE

Über Starlink 35248

Beschreibung wird geladen...

Live-Position

3D-Globus wird geladen...

Nächste Überflüge

Höhenverlauf

Altitude vs Time

uPlot chart will show altitude changes over time

Zweizeiliger Elementsatz

1 65598U 25207G 25308.60647861 .00034143 00000-0 87319-3 0 9991
2 65598 97.6053 12.9422 0001966 85.0036 275.1434 15.39361604 9282
Epoch: 4. Nov. 2025 • Age: 14 hours

Aktueller Status

Höhe 453.0 km
Geschwindigkeit 7.65 km/s
Subsatellitenpunkt 41.57°N, 109.54°W
Startdatum 13. Sept. 2025
Alter 0.1 years
Typ internet

Technische Details

Klassifizierung Payload
Masse 575.00 kg
Trockenmasse 530.00 kg
Gesamtmasse 575.00 kg
Länge 0.30 m
Durchmesser 4.10 m
Spannweite 29.00 m
Form Box + pan
Hersteller SPXS
Bus-Typ Starlink V2MO
Phasenstatus In Orbit
Besitzer/Staat SPXS/US

Große Konstellationen

Loading constellations...